Time,TemperatureF,DewpointF,PressureIn,WindDirection,WindDirectionDegrees,WindSpeedMPH,WindSpeedGustMPH,Humidity,HourlyPrecipIn,Conditions,Clouds,dailyrainin,SolarRadiationWatts/m^2,SoftwareType,DateUTC
2013-06-05 00:01:00,73.1,71.9,30.02,N/A,-737280,0.0,-999.0,96,0.00,,,0.00,0,Wunderground v.1.15,2013-06-05 04:01:00,
2013-06-05 00:06:00,73.1,71.9,30.02,N/A,-737280,0.0,-999.0,96,0.00,,,0.00,0,Wunderground v.1.15,2013-06-05 04:06:00,
2013-06-05 00:11:00,73.1,71.9,30.02,N/A,-737280,0.0,-999.0,96,0.00,,,0.00,0,Wunderground v.1.15,2013-06-05 04:11:00,
2013-06-05 00:16:00,73.1,71.9,30.02,N/A,-737280,0.0,-999.0,96,0.00,,,0.00,0,Wunderground v.1.15,2013-06-05 04:16:00,
2013-06-05 00:21:00,73.1,71.9,30.02,N/A,-737280,0.0,-999.0,96,0.00,,,0.00,0,Wunderground v.1.15,2013-06-05 04:21:00,
2013-06-05 00:26:00,73.1,71.9,30.02,N/A,-737280,0.0,-999.0,96,0.00,,,0.00,0,Wunderground v.1.15,2013-06-05 04:26:00,
2013-06-05 00:31:00,73.1,71.9,30.02,N/A,-737280,0.0,-999.0,96,0.00,,,0.00,0,Wunderground v.1.15,2013-06-05 04:31:00,
2013-06-05 00:36:00,73.1,71.9,30.02,N/A,-737280,0.0,-999.0,96,0.00,,,0.00,0,Wunderground v.1.15,2013-06-05 04:36:00,
2013-06-05 00:41:00,73.1,71.9,30.02,N/A,-737280,0.0,-999.0,96,0.00,,,0.00,0,Wunderground v.1.15,2013-06-05 04:41:00,
2013-06-05 00:46:00,73.6,72.7,30.01,SE,135,0.0,-999.0,97,0.00,,,0.00,0,Wunderground v.1.15,2013-06-05 04:46:00,
2013-06-05 00:51:00,73.6,72.7,30.01,SE,135,0.0,-999.0,97,0.00,,,0.00,0,Wunderground v.1.15,2013-06-05 04:51:00,
2013-06-05 00:56:00,73.6,72.7,30.01,SE,135,0.0,-999.0,97,0.00,,,0.00,0,Wunderground v.1.15,2013-06-05 04:56:00,
2013-06-05 01:01:00,73.6,72.7,30.01,SE,135,0.0,-999.0,97,0.00,,,0.00,0,Wunderground v.1.15,2013-06-05 05:01:00,
2013-06-05 01:06:00,73.6,72.7,30.01,SE,135,0.0,-999.0,97,0.00,,,0.00,0,Wunderground v.1.15,2013-06-05 05:06:00,
2013-06-05 01:11:00,73.6,72.7,30.01,SE,135,0.0,-999.0,97,0.00,,,0.00,0,Wunderground v.1.15,2013-06-05 05:11:00,
2013-06-05 01:16:00,74.2,73.3,30.01,SE,135,0.0,-999.0,97,0.00,,,0.00,0,Wunderground v.1.15,2013-06-05 05:16:00,
2013-06-05 01:21:00,74.2,73.3,30.01,SE,135,0.0,-999.0,97,0.00,,,0.00,0,Wunderground v.1.15,2013-06-05 05:21:00,
2013-06-05 01:26:00,74.2,73.3,30.01,SE,135,0.0,-999.0,97,0.00,,,0.00,0,Wunderground v.1.15,2013-06-05 05:26:00,
2013-06-05 01:31:00,74.2,73.3,30.01,SE,135,0.0,-999.0,97,0.00,,,0.00,0,Wunderground v.1.15,2013-06-05 05:31:00,
2013-06-05 01:36:00,74.2,73.3,30.01,SE,135,0.0,-999.0,97,0.00,,,0.00,0,Wunderground v.1.15,2013-06-05 05:36:00,
2013-06-05 01:41:00,74.2,73.3,30.01,SE,135,0.0,-999.0,97,0.00,,,0.00,0,Wunderground v.1.15,2013-06-05 05:41:00,
2013-06-05 01:46:00,74.6,73.7,30.00,N/A,-737280,0.0,-999.0,97,0.00,,,0.00,0,Wunderground v.1.15,2013-06-05 05:46:00,
2013-06-05 01:51:00,74.6,73.7,30.00,N/A,-737280,0.0,-999.0,97,0.00,,,0.00,0,Wunderground v.1.15,2013-06-05 05:51:00,
2013-06-05 01:56:00,74.6,73.7,30.00,N/A,-737280,0.0,-999.0,97,0.00,,,0.00,0,Wunderground v.1.15,2013-06-05 05:56:00,
2013-06-05 02:01:00,74.6,73.7,30.00,N/A,-737280,0.0,-999.0,97,0.00,,,0.00,0,Wunderground v.1.15,2013-06-05 06:01:00,
2013-06-05 02:06:00,74.6,73.7,30.00,N/A,-737280,0.0,-999.0,97,0.00,,,0.00,0,Wunderground v.1.15,2013-06-05 06:06:00,
2013-06-05 02:11:00,74.6,73.7,30.00,N/A,-737280,0.0,-999.0,97,0.00,,,0.00,0,Wunderground v.1.15,2013-06-05 06:11:00,
2013-06-05 02:16:00,74.8,73.9,30.00,N/A,-737280,0.0,-999.0,97,0.00,,,0.00,0,Wunderground v.1.15,2013-06-05 06:16:00,
2013-06-05 02:21:00,74.8,73.9,30.00,N/A,-737280,0.0,-999.0,97,0.00,,,0.00,0,Wunderground v.1.15,2013-06-05 06:21:00,
2013-06-05 02:26:00,74.8,73.9,30.00,N/A,-737280,0.0,-999.0,97,0.00,,,0.00,0,Wunderground v.1.15,2013-06-05 06:26:00,
2013-06-05 02:31:00,74.8,73.9,30.00,N/A,-737280,0.0,-999.0,97,0.00,,,0.00,0,Wunderground v.1.15,2013-06-05 06:31:00,
2013-06-05 02:36:00,74.8,73.9,30.00,N/A,-737280,0.0,-999.0,97,0.00,,,0.00,0,Wunderground v.1.15,2013-06-05 06:36:00,
2013-06-05 02:41:00,74.8,73.9,30.00,N/A,-737280,0.0,-999.0,97,0.00,,,0.00,0,Wunderground v.1.15,2013-06-05 06:41:00,
2013-06-05 02:46:00,74.7,73.8,30.01,SE,135,0.0,-999.0,97,0.00,,,0.00,0,Wunderground v.1.15,2013-06-05 06:46:00,
2013-06-05 02:51:00,74.7,73.8,30.01,SE,135,0.0,-999.0,97,0.00,,,0.00,0,Wunderground v.1.15,2013-06-05 06:51:00,
2013-06-05 02:56:00,74.7,73.8,30.01,SE,135,0.0,-999.0,97,0.00,,,0.00,0,Wunderground v.1.15,2013-06-05 06:56:00,
2013-06-05 03:01:00,74.7,73.8,30.01,SE,135,0.0,-999.0,97,0.00,,,0.00,0,Wunderground v.1.15,2013-06-05 07:01:00,
2013-06-05 03:06:00,74.7,73.8,30.01,SE,135,0.0,-999.0,97,0.00,,,0.00,0,Wunderground v.1.15,2013-06-05 07:06:00,
2013-06-05 03:11:00,74.7,73.8,30.01,SE,135,0.0,-999.0,97,0.00,,,0.00,0,Wunderground v.1.15,2013-06-05 07:11:00,
2013-06-05 03:16:00,74.3,73.4,30.02,SSE,158,1.0,-999.0,97,0.00,,,0.00,0,Wunderground v.1.15,2013-06-05 07:16:00,
2013-06-05 03:21:00,74.3,73.4,30.02,SSE,158,1.0,-999.0,97,0.00,,,0.00,0,Wunderground v.1.15,2013-06-05 07:21:00,
2013-06-05 03:26:00,74.3,73.4,30.02,SSE,158,1.0,-999.0,97,0.00,,,0.00,0,Wunderground v.1.15,2013-06-05 07:26:00,
2013-06-05 03:31:00,74.3,73.4,30.02,SSE,158,1.0,-999.0,97,0.00,,,0.00,0,Wunderground v.1.15,2013-06-05 07:31:00,
2013-06-05 03:36:00,74.3,73.4,30.02,SSE,158,1.0,-999.0,97,0.00,,,0.00,0,Wunderground v.1.15,2013-06-05 07:36:00,
2013-06-05 03:41:00,74.3,73.4,30.02,SSE,158,1.0,-999.0,97,0.00,,,0.00,0,Wunderground v.1.15,2013-06-05 07:41:00,
2013-06-05 03:46:00,73.0,71.5,30.02,SSE,158,2.0,-999.0,95,0.00,,,0.00,0,Wunderground v.1.15,2013-06-05 07:46:00,
2013-06-05 03:51:00,73.0,71.5,30.02,SSE,158,2.0,-999.0,95,0.00,,,0.00,0,Wunderground v.1.15,2013-06-05 07:51:00,
2013-06-05 03:56:00,73.0,71.5,30.02,SSE,158,2.0,-999.0,95,0.00,,,0.00,0,Wunderground v.1.15,2013-06-05 07:56:00,
2013-06-05 04:01:00,73.0,71.5,30.02,SSE,158,2.0,-999.0,95,0.00,,,0.00,0,Wunderground v.1.15,2013-06-05 08:01:00,
2013-06-05 04:06:00,73.0,71.5,30.02,SSE,158,2.0,-999.0,95,0.00,,,0.00,0,Wunderground v.1.15,2013-06-05 08:06:00,
2013-06-05 04:11:00,73.0,71.5,30.02,SSE,158,2.0,-999.0,95,0.00,,,0.00,0,Wunderground v.1.15,2013-06-05 08:11:00,
2013-06-05 04:16:00,72.4,70.9,30.02,South,180,0.0,-999.0,95,0.00,,,0.00,0,Wunderground v.1.15,2013-06-05 08:16:00,
2013-06-05 04:21:00,72.4,70.9,30.02,South,180,0.0,-999.0,95,0.00,,,0.00,0,Wunderground v.1.15,2013-06-05 08:21:00,
2013-06-05 04:26:00,72.4,70.9,30.02,South,180,0.0,-999.0,95,0.00,,,0.00,0,Wunderground v.1.15,2013-06-05 08:26:00,
2013-06-05 04:31:00,72.4,70.9,30.02,South,180,0.0,-999.0,95,0.00,,,0.00,0,Wunderground v.1.15,2013-06-05 08:31:00,
2013-06-05 04:36:00,72.4,70.9,30.02,South,180,0.0,-999.0,95,0.00,,,0.00,0,Wunderground v.1.15,2013-06-05 08:36:00,
2013-06-05 04:41:00,72.4,70.9,30.02,South,180,0.0,-999.0,95,0.00,,,0.00,0,Wunderground v.1.15,2013-06-05 08:41:00,
2013-06-05 04:46:00,72.1,70.9,30.03,South,180,0.0,-999.0,96,0.00,,,0.00,3,Wunderground v.1.15,2013-06-05 08:46:00,
2013-06-05 04:51:00,72.1,70.9,30.03,South,180,0.0,-999.0,96,0.00,,,0.00,3,Wunderground v.1.15,2013-06-05 08:51:00,
2013-06-05 04:56:00,72.1,70.9,30.03,South,180,0.0,-999.0,96,0.00,,,0.00,3,Wunderground v.1.15,2013-06-05 08:56:00,
2013-06-05 05:01:00,72.1,70.9,30.03,South,180,0.0,-999.0,96,0.00,,,0.00,3,Wunderground v.1.15,2013-06-05 09:01:00,
2013-06-05 05:06:00,72.1,70.9,30.03,South,180,0.0,-999.0,96,0.00,,,0.00,3,Wunderground v.1.15,2013-06-05 09:06:00,
2013-06-05 05:11:00,72.1,70.9,30.03,South,180,0.0,-999.0,96,0.00,,,0.00,3,Wunderground v.1.15,2013-06-05 09:11:00,
2013-06-05 05:16:00,72.2,71.0,30.03,South,180,0.0,-999.0,96,0.00,,,0.00,12,Wunderground v.1.15,2013-06-05 09:16:00,
2013-06-05 05:21:00,72.2,71.0,30.03,South,180,0.0,-999.0,96,0.00,,,0.00,12,Wunderground v.1.15,2013-06-05 09:21:00,
2013-06-05 05:26:00,72.2,71.0,30.03,South,180,0.0,-999.0,96,0.00,,,0.00,12,Wunderground v.1.15,2013-06-05 09:26:00,
2013-06-05 05:31:00,72.2,71.0,30.03,South,180,0.0,-999.0,96,0.00,,,0.00,12,Wunderground v.1.15,2013-06-05 09:31:00,
2013-06-05 05:36:00,72.2,71.0,30.03,South,180,0.0,-999.0,96,0.00,,,0.00,12,Wunderground v.1.15,2013-06-05 09:36:00,
2013-06-05 05:41:00,72.2,71.0,30.03,South,180,0.0,-999.0,96,0.00,,,0.00,12,Wunderground v.1.15,2013-06-05 09:41:00,
2013-06-05 05:46:00,72.9,71.7,30.03,SSE,158,1.0,-999.0,96,0.00,,,0.00,34,Wunderground v.1.15,2013-06-05 09:46:00,
2013-06-05 05:51:00,72.9,71.7,30.03,SSE,158,1.0,-999.0,96,0.00,,,0.00,34,Wunderground v.1.15,2013-06-05 09:51:00,
2013-06-05 05:56:00,72.9,71.7,30.03,SSE,158,1.0,-999.0,96,0.00,,,0.00,34,Wunderground v.1.15,2013-06-05 09:56:00,
2013-06-05 06:01:00,72.9,71.7,30.03,SSE,158,1.0,-999.0,96,0.00,,,0.00,34,Wunderground v.1.15,2013-06-05 10:01:00,
2013-06-05 06:06:00,72.9,71.7,30.03,SSE,158,1.0,-999.0,96,0.00,,,0.00,34,Wunderground v.1.15,2013-06-05 10:06:00,
2013-06-05 06:11:00,72.9,71.7,30.03,SSE,158,1.0,-999.0,96,0.00,,,0.00,34,Wunderground v.1.15,2013-06-05 10:11:00,
2013-06-05 06:16:00,74.8,73.3,30.03,SSE,158,1.0,-999.0,95,0.00,,,0.00,83,Wunderground v.1.15,2013-06-05 10:16:00,
2013-06-05 06:21:00,74.8,73.3,30.03,SSE,158,1.0,-999.0,95,0.00,,,0.00,83,Wunderground v.1.15,2013-06-05 10:21:00,
2013-06-05 06:26:00,74.8,73.3,30.03,SSE,158,1.0,-999.0,95,0.00,,,0.00,83,Wunderground v.1.15,2013-06-05 10:26:00,
2013-06-05 06:31:00,74.8,73.3,30.03,SSE,158,1.0,-999.0,95,0.00,,,0.00,83,Wunderground v.1.15,2013-06-05 10:31:00,
2013-06-05 06:36:00,74.8,73.3,30.03,SSE,158,1.0,-999.0,95,0.00,,,0.00,83,Wunderground v.1.15,2013-06-05 10:36:00,
2013-06-05 06:41:00,74.8,73.3,30.03,SSE,158,1.0,-999.0,95,0.00,,,0.00,83,Wunderground v.1.15,2013-06-05 10:41:00,
2013-06-05 06:46:00,76.5,74.6,30.04,SSE,158,1.0,-999.0,94,0.00,,,0.00,116,Wunderground v.1.15,2013-06-05 10:46:00,
2013-06-05 06:51:00,76.5,74.6,30.04,SSE,158,1.0,-999.0,94,0.00,,,0.00,116,Wunderground v.1.15,2013-06-05 10:51:00,
2013-06-05 06:56:00,76.5,74.6,30.04,SSE,158,1.0,-999.0,94,0.00,,,0.00,116,Wunderground v.1.15,2013-06-05 10:56:00,
2013-06-05 07:01:00,76.5,74.6,30.04,SSE,158,1.0,-999.0,94,0.00,,,0.00,116,Wunderground v.1.15,2013-06-05 11:01:00,
2013-06-05 07:06:00,76.5,74.6,30.04,SSE,158,1.0,-999.0,94,0.00,,,0.00,116,Wunderground v.1.15,2013-06-05 11:06:00,
2013-06-05 07:11:00,76.5,74.6,30.04,SSE,158,1.0,-999.0,94,0.00,,,0.00,116,Wunderground v.1.15,2013-06-05 11:11:00,
2013-06-05 07:16:00,78.2,75.4,30.04,SSE,158,1.0,-999.0,91,0.00,,,0.00,230,Wunderground v.1.15,2013-06-05 11:16:00,
2013-06-05 07:21:00,78.2,75.4,30.04,SSE,158,1.0,-999.0,91,0.00,,,0.00,230,Wunderground v.1.15,2013-06-05 11:21:00,
2013-06-05 07:26:00,78.2,75.4,30.04,SSE,158,1.0,-999.0,91,0.00,,,0.00,230,Wunderground v.1.15,2013-06-05 11:26:00,
2013-06-05 07:57:00,74.4,73.2,30.03,SSE,154,1.0,8.0,96,0.00,,,0.00,91,Wunderground v.1.15,2013-06-05 11:57:00,
2013-06-05 08:05:00,75.1,73.6,30.03,SE,142,1.0,5.0,95,0.00,,,0.00,62,Wunderground v.1.15,2013-06-05 12:05:00,
2013-06-05 08:10:00,75.3,73.8,30.03,SSE,163,1.0,5.0,95,0.00,,,0.00,77,Wunderground v.1.15,2013-06-05 12:10:00,
2013-06-05 08:20:00,75.6,73.8,30.03,South,172,0.0,5.0,94,0.00,,,0.00,91,Wunderground v.1.15,2013-06-05 12:20:00,
2013-06-05 08:25:00,75.9,74.0,30.04,SSE,155,1.0,1.0,94,0.00,,,0.00,186,Wunderground v.1.15,2013-06-05 12:25:00,
2013-06-05 08:30:00,76.3,74.8,30.04,SE,145,0.0,5.0,95,0.00,,,0.00,185,Wunderground v.1.15,2013-06-05 12:30:00,
2013-06-05 09:15:00,77.9,75.4,30.04,SE,134,0.0,8.0,92,0.00,,,0.00,137,Wunderground v.1.15,2013-06-05 13:15:00,
2013-06-05 09:20:00,78.0,75.5,30.04,WNW,283,0.0,8.0,92,0.35,,,0.02,116,Wunderground v.1.15,2013-06-05 13:20:00,
2013-06-05 09:25:00,78.1,75.6,30.04,ESE,103,0.0,8.0,92,0.13,,,0.03,241,Wunderground v.1.15,2013-06-05 13:25:00,
2013-06-05 09:30:00,78.1,75.6,30.04,West,263,1.0,8.0,92,0.09,,,0.04,564,Wunderground v.1.15,2013-06-05 13:30:00,
2013-06-05 09:35:00,78.3,75.5,30.04,West,265,0.0,2.0,91,0.08,,,0.04,636,Wunderground v.1.15,2013-06-05 13:35:00,
2013-06-05 09:40:00,78.9,76.4,30.04,WNW,303,3.0,4.0,92,0.05,,,0.04,710,Wunderground v.1.15,2013-06-05 13:40:00,
2013-06-05 09:45:00,79.1,75.9,30.05,West,269,2.0,4.0,90,0.00,,,0.04,265,Wunderground v.1.15,2013-06-05 13:45:00,
2013-06-05 09:50:00,79.2,75.7,30.04,ESE,107,4.0,6.0,89,0.00,,,0.04,438,Wunderground v.1.15,2013-06-05 13:50:00,
2013-06-05 09:55:00,79.3,75.4,30.04,WNW,294,1.0,4.0,88,0.00,,,0.04,471,Wunderground v.1.15,2013-06-05 13:55:00,
2013-06-05 10:00:00,79.3,75.1,30.04,West,274,0.0,2.0,87,0.00,,,0.04,406,Wunderground v.1.15,2013-06-05 14:00:00,
2013-06-05 10:05:00,79.8,75.9,30.04,NNE,12,1.0,5.0,88,0.00,,,0.04,888,Wunderground v.1.15,2013-06-05 14:05:00,
2013-06-05 10:10:00,80.5,75.9,30.03,South,183,0.0,3.0,86,0.00,,,0.04,875,Wunderground v.1.15,2013-06-05 14:10:00,
2013-06-05 10:15:00,80.8,76.2,30.03,West,278,5.0,8.0,86,0.00,,,0.04,373,Wunderground v.1.15,2013-06-05 14:15:00,
2013-06-05 10:20:00,81.2,75.9,30.03,WSW,252,1.0,2.0,84,0.00,,,0.04,819,Wunderground v.1.15,2013-06-05 14:20:00,
2013-06-05 10:25:00,81.6,75.9,30.03,West,268,5.0,8.0,83,0.00,,,0.04,877,Wunderground v.1.15,2013-06-05 14:25:00,
2013-06-05 10:30:00,81.8,75.8,30.03,South,173,4.0,6.0,82,0.00,,,0.04,826,Wunderground v.1.15,2013-06-05 14:30:00,
2013-06-05 10:35:00,82.1,76.4,30.04,WNW,285,6.0,8.0,83,0.00,,,0.04,376,Wunderground v.1.15,2013-06-05 14:35:00,
2013-06-05 10:40:00,81.5,75.8,30.04,SW,231,0.0,5.0,83,0.00,,,0.04,547,Wunderground v.1.15,2013-06-05 14:40:00,
2013-06-05 10:46:00,80.9,75.6,30.04,SW,232,1.0,6.0,84,0.00,,,0.04,232,Wunderground v.1.15,2013-06-05 14:46:00,
2013-06-05 10:51:00,80.5,75.2,30.04,West,272,0.0,6.0,84,0.00,,,0.04,301,Wunderground v.1.15,2013-06-05 14:51:00,
2013-06-05 10:56:00,80.3,75.4,30.04,SE,146,2.0,9.0,85,0.00,,,0.04,338,Wunderground v.1.15,2013-06-05 14:56:00,
2013-06-05 11:02:00,80.3,75.4,30.04,SSW,209,0.0,3.0,85,0.00,,,0.04,276,Wunderground v.1.15,2013-06-05 15:02:00,
2013-06-05 11:07:00,80.3,75.7,30.04,WNW,285,2.0,6.0,86,0.00,,,0.04,352,Wunderground v.1.15,2013-06-05 15:07:00,
2013-06-05 11:12:00,80.4,75.5,30.04,ENE,57,2.0,7.0,85,0.00,,,0.04,381,Wunderground v.1.15,2013-06-05 15:12:00,
2013-06-05 11:17:00,80.4,75.5,30.04,SSW,198,4.0,7.0,85,0.00,,,0.04,373,Wunderground v.1.15,2013-06-05 15:17:00,
2013-06-05 11:22:00,80.5,75.6,30.04,East,93,0.0,4.0,85,0.00,,,0.04,295,Wunderground v.1.15,2013-06-05 15:22:00,
2013-06-05 11:28:00,80.4,75.1,30.04,WNW,284,5.0,8.0,84,0.00,,,0.04,241,Wunderground v.1.15,2013-06-05 15:28:00,
2013-06-05 11:33:00,80.3,75.4,30.05,NNE,19,1.0,4.0,85,0.00,,,0.04,144,Wunderground v.1.15,2013-06-05 15:33:00,
2013-06-05 11:38:00,80.1,75.5,30.04,NW,309,4.0,5.0,86,0.00,,,0.04,230,Wunderground v.1.15,2013-06-05 15:38:00,
2013-06-05 11:43:00,80.0,75.4,30.05,SSW,192,1.0,3.0,86,0.00,,,0.04,308,Wunderground v.1.15,2013-06-05 15:43:00,
2013-06-05 11:48:00,79.8,75.2,30.05,WSW,258,0.0,6.0,86,0.00,,,0.04,174,Wunderground v.1.15,2013-06-05 15:48:00,
2013-06-05 11:52:00,79.9,75.7,30.05,SSE,150,1.0,1.0,87,0.00,,,0.04,134,Wunderground v.1.15,2013-06-05 15:52:00,
2013-06-05 11:58:00,79.8,75.2,30.05,NW,319,4.0,6.0,86,0.00,,,0.04,142,Wunderground v.1.15,2013-06-05 15:58:00,
2013-06-05 12:02:00,79.7,75.1,30.05,SE,133,0.0,4.0,86,0.00,,,0.04,269,Wunderground v.1.15,2013-06-05 16:02:00,
2013-06-05 12:08:00,79.7,75.1,30.05,NE,53,0.0,7.0,86,0.00,,,0.04,188,Wunderground v.1.15,2013-06-05 16:08:00,
2013-06-05 12:13:00,79.6,74.7,30.05,WNW,284,3.0,7.0,85,0.00,,,0.04,225,Wunderground v.1.15,2013-06-05 16:13:00,
2013-06-05 12:18:00,79.8,75.2,30.05,South,184,0.0,7.0,86,0.00,,,0.04,176,Wunderground v.1.15,2013-06-05 16:18:00,
2013-06-05 12:23:00,79.8,75.2,30.04,SSE,165,0.0,1.0,86,0.00,,,0.04,206,Wunderground v.1.15,2013-06-05 16:23:00,
2013-06-05 12:28:00,79.8,74.9,30.05,South,178,2.0,3.0,85,0.00,,,0.04,174,Wunderground v.1.15,2013-06-05 16:28:00,
2013-06-05 12:33:00,79.2,73.9,30.05,SE,128,3.0,4.0,84,0.00,,,0.04,197,Wunderground v.1.15,2013-06-05 16:33:00,
2013-06-05 12:38:00,78.7,73.8,30.05,SSE,155,0.0,6.0,85,0.00,,,0.04,214,Wunderground v.1.15,2013-06-05 16:38:00,
2013-06-05 12:43:00,78.5,73.6,30.05,NW,304,1.0,4.0,85,0.00,,,0.04,287,Wunderground v.1.15,2013-06-05 16:43:00,
2013-06-05 12:48:00,78.5,73.6,30.04,SE,146,0.0,5.0,85,0.00,,,0.04,381,Wunderground v.1.15,2013-06-05 16:48:00,
2013-06-05 12:53:00,78.7,73.5,30.04,South,190,2.0,3.0,84,0.00,,,0.04,411,Wunderground v.1.15,2013-06-05 16:53:00,
2013-06-05 12:58:00,79.0,74.1,30.04,South,173,1.0,6.0,85,0.00,,,0.04,450,Wunderground v.1.15,2013-06-05 16:58:00,
2013-06-05 13:03:00,79.4,74.1,30.04,SW,225,3.0,3.0,84,0.00,,,0.04,483,Wunderground v.1.15,2013-06-05 17:03:00,
2013-06-05 13:08:00,80.0,74.4,30.04,SSE,165,0.0,3.0,83,0.00,,,0.04,469,Wunderground v.1.15,2013-06-05 17:08:00,
2013-06-05 13:13:00,80.7,74.7,30.04,WNW,288,1.0,3.0,82,0.00,,,0.04,531,Wunderground v.1.15,2013-06-05 17:13:00,
2013-06-05 13:18:00,80.9,74.5,30.04,SW,232,1.0,5.0,81,0.00,,,0.04,499,Wunderground v.1.15,2013-06-05 17:18:00,
2013-06-05 13:23:00,81.2,74.8,30.04,NNW,344,2.0,3.0,81,0.00,,,0.04,504,Wunderground v.1.15,2013-06-05 17:23:00,
2013-06-05 13:28:00,81.3,74.9,30.03,NE,34,1.0,9.0,81,0.00,,,0.04,526,Wunderground v.1.15,2013-06-05 17:28:00,
2013-06-05 13:34:00,81.3,74.5,30.03,SE,127,2.0,3.0,80,0.00,,,0.04,538,Wunderground v.1.15,2013-06-05 17:34:00,
2013-06-05 13:39:00,81.3,74.9,30.03,SSE,157,3.0,8.0,81,0.00,,,0.04,543,Wunderground v.1.15,2013-06-05 17:39:00,
2013-06-05 13:44:00,81.5,75.1,30.02,SW,223,0.0,2.0,81,0.00,,,0.04,541,Wunderground v.1.15,2013-06-05 17:44:00,
2013-06-05 13:49:00,82.0,75.6,30.02,NW,310,2.0,5.0,81,0.00,,,0.04,566,Wunderground v.1.15,2013-06-05 17:49:00,
2013-06-05 13:54:00,81.9,75.1,30.02,SSW,201,2.0,7.0,80,0.00,,,0.04,271,Wunderground v.1.15,2013-06-05 17:54:00,
2013-06-05 13:59:00,81.7,75.3,30.02,SSE,153,2.0,7.0,81,0.00,,,0.04,364,Wunderground v.1.15,2013-06-05 17:59:00,
2013-06-05 14:04:00,81.0,75.0,30.02,SSE,153,5.0,6.0,82,0.00,,,0.04,420,Wunderground v.1.15,2013-06-05 18:04:00,
2013-06-05 14:09:00,80.8,75.2,30.02,SE,142,2.0,7.0,83,0.00,,,0.04,406,Wunderground v.1.15,2013-06-05 18:09:00,
2013-06-05 14:14:00,80.7,75.4,30.02,East,96,2.0,5.0,84,0.00,,,0.04,353,Wunderground v.1.15,2013-06-05 18:14:00,
2013-06-05 14:19:00,80.9,75.6,30.01,SSE,168,2.0,5.0,84,0.00,,,0.04,279,Wunderground v.1.15,2013-06-05 18:19:00,
2013-06-05 14:24:00,80.6,75.0,30.01,SSE,165,0.0,6.0,83,0.00,,,0.04,306,Wunderground v.1.15,2013-06-05 18:24:00,
2013-06-05 14:29:00,80.6,75.3,30.01,WNW,303,1.0,8.0,84,0.00,,,0.04,390,Wunderground v.1.15,2013-06-05 18:29:00,
2013-06-05 14:34:00,80.9,75.2,30.01,NNE,13,3.0,8.0,83,0.00,,,0.04,167,Wunderground v.1.15,2013-06-05 18:34:00,
2013-06-05 14:39:00,80.5,74.9,30.01,SSW,192,0.0,8.0,83,0.00,,,0.04,65,Wunderground v.1.15,2013-06-05 18:39:00,
2013-06-05 14:44:00,79.5,74.6,30.01,East,99,3.0,5.0,85,1.88,,,0.09,93,Wunderground v.1.15,2013-06-05 18:44:00,
2013-06-05 14:49:00,77.5,73.0,30.01,ENE,63,0.0,8.0,86,1.41,,,0.19,183,Wunderground v.1.15,2013-06-05 18:49:00,
2013-06-05 14:54:00,76.3,73.1,30.00,NW,314,6.0,9.0,90,0.30,,,0.26,355,Wunderground v.1.15,2013-06-05 18:54:00,
2013-06-05 14:59:00,76.1,73.6,30.00,NE,42,1.0,9.0,92,0.10,,,0.26,492,Wunderground v.1.15,2013-06-05 18:59:00,
2013-06-05 15:04:00,76.4,74.2,30.00,SSE,161,1.0,7.0,93,0.06,,,0.26,468,Wunderground v.1.15,2013-06-05 19:04:00,
2013-06-05 15:09:00,76.7,74.2,30.00,WNW,303,3.0,10.0,92,0.04,,,0.26,459,Wunderground v.1.15,2013-06-05 19:09:00,
2013-06-05 15:14:00,77.0,74.5,30.00,SE,125,0.0,9.0,92,0.00,,,0.26,492,Wunderground v.1.15,2013-06-05 19:14:00,
2013-06-05 15:19:00,77.8,75.9,30.00,North,355,2.0,9.0,94,0.00,,,0.26,487,Wunderground v.1.15,2013-06-05 19:19:00,
2013-06-05 15:25:00,78.1,75.3,30.00,ESE,113,1.0,6.0,91,0.00,,,0.26,406,Wunderground v.1.15,2013-06-05 19:25:00,
2013-06-05 15:30:00,78.2,74.7,29.99,NNW,332,3.0,4.0,89,0.00,,,0.26,427,Wunderground v.1.15,2013-06-05 19:30:00,
2013-06-05 15:35:00,78.1,74.6,29.99,East,101,0.0,6.0,89,0.00,,,0.26,390,Wunderground v.1.15,2013-06-05 19:35:00,
2013-06-05 15:40:00,78.1,74.3,29.99,SSE,150,0.0,2.0,88,0.00,,,0.26,346,Wunderground v.1.15,2013-06-05 19:40:00,
2013-06-05 15:45:00,78.1,74.3,29.99,WNW,302,2.0,6.0,88,0.00,,,0.26,346,Wunderground v.1.15,2013-06-05 19:45:00,
2013-06-05 15:50:00,78.1,73.9,30.00,South,186,2.0,3.0,87,0.00,,,0.26,367,Wunderground v.1.15,2013-06-05 19:50:00,
2013-06-05 15:55:00,78.0,73.5,29.99,NW,325,2.0,5.0,86,0.00,,,0.26,330,Wunderground v.1.15,2013-06-05 19:55:00,
2013-06-05 16:00:00,78.2,74.0,29.99,East,84,0.0,2.0,87,0.00,,,0.26,364,Wunderground v.1.15,2013-06-05 20:00:00,
2013-06-05 16:05:00,78.3,74.1,29.99,SE,127,0.0,5.0,87,0.00,,,0.26,408,Wunderground v.1.15,2013-06-05 20:05:00,
2013-06-05 16:10:00,78.6,73.4,29.99,NW,313,4.0,6.0,84,0.00,,,0.26,446,Wunderground v.1.15,2013-06-05 20:10:00,
2013-06-05 16:15:00,79.1,73.8,29.99,NNW,342,2.0,6.0,84,0.00,,,0.26,605,Wunderground v.1.15,2013-06-05 20:15:00,
2013-06-05 16:20:00,79.5,73.9,29.99,NNW,331,0.0,2.0,83,0.00,,,0.26,489,Wunderground v.1.15,2013-06-05 20:20:00,
2013-06-05 16:25:00,80.4,75.1,29.99,NE,42,2.0,8.0,84,0.00,,,0.26,826,Wunderground v.1.15,2013-06-05 20:25:00,
2013-06-05 16:30:00,81.1,74.3,29.99,WNW,297,6.0,6.0,80,0.00,,,0.26,464,Wunderground v.1.15,2013-06-05 20:30:00,
2013-06-05 16:35:00,81.0,74.2,30.00,ENE,61,2.0,8.0,80,0.00,,,0.26,415,Wunderground v.1.15,2013-06-05 20:35:00,
2013-06-05 16:40:00,80.9,74.5,29.99,ENE,74,2.0,2.0,81,0.00,,,0.26,325,Wunderground v.1.15,2013-06-05 20:40:00,
2013-06-05 16:45:00,81.0,74.2,29.99,WNW,292,3.0,9.0,80,0.00,,,0.26,891,Wunderground v.1.15,2013-06-05 20:45:00,
2013-06-05 16:51:00,80.9,74.5,29.99,WSW,248,2.0,6.0,81,0.00,,,0.26,63,Wunderground v.1.15,2013-06-05 20:51:00,
2013-06-05 16:56:00,80.1,74.5,29.98,SSW,193,1.0,12.0,83,0.57,,,0.32,86,Wunderground v.1.15,2013-06-05 20:56:00,
2013-06-05 17:02:00,78.3,74.5,29.99,SE,136,0.0,2.0,88,0.11,,,0.33,142,Wunderground v.1.15,2013-06-05 21:02:00,
2013-06-05 17:07:00,77.9,74.7,29.99,SE,143,1.0,7.0,90,0.09,,,0.33,253,Wunderground v.1.15,2013-06-05 21:07:00,
2013-06-05 17:12:00,77.9,75.4,29.99,SSE,167,2.0,2.0,92,0.05,,,0.33,174,Wunderground v.1.15,2013-06-05 21:12:00,
2013-06-05 17:17:00,77.8,75.0,29.98,West,276,0.0,4.0,91,0.04,,,0.33,153,Wunderground v.1.15,2013-06-05 21:17:00,
2013-06-05 17:22:00,77.8,75.3,29.98,ENE,76,0.0,1.0,92,0.00,,,0.33,190,Wunderground v.1.15,2013-06-05 21:22:00,
2013-06-05 17:27:00,77.8,75.3,29.98,SE,126,0.0,2.0,92,0.00,,,0.33,209,Wunderground v.1.15,2013-06-05 21:27:00,
2013-06-05 17:32:00,77.8,75.3,29.98,South,175,1.0,6.0,92,0.00,,,0.33,163,Wunderground v.1.15,2013-06-05 21:32:00,
2013-06-05 17:37:00,77.6,74.8,29.98,SSE,158,0.0,10.0,91,0.00,,,0.33,76,Wunderground v.1.15,2013-06-05 21:37:00,
2013-06-05 17:42:00,77.0,73.5,29.99,NNW,331,4.0,12.0,89,4.27,,,0.47,18,Wunderground v.1.15,2013-06-05 21:42:00,
2013-06-05 17:47:00,75.3,72.2,29.99,NNW,336,2.0,12.0,90,1.79,,,0.63,30,Wunderground v.1.15,2013-06-05 21:47:00,
2013-06-05 17:52:00,74.3,71.8,29.99,NE,50,1.0,4.0,92,0.24,,,0.67,40,Wunderground v.1.15,2013-06-05 21:52:00,
2013-06-05 17:57:00,73.6,71.4,29.99,ESE,121,0.0,4.0,93,0.35,,,0.71,51,Wunderground v.1.15,2013-06-05 21:57:00,
2013-06-05 18:02:00,73.4,71.6,29.99,SSE,153,1.0,2.0,94,0.16,,,0.72,72,Wunderground v.1.15,2013-06-05 22:02:00,
2013-06-05 18:07:00,73.4,71.9,29.99,South,186,0.0,5.0,95,0.12,,,0.73,86,Wunderground v.1.15,2013-06-05 22:07:00,
2013-06-05 18:12:00,73.5,72.0,29.98,SSE,150,0.0,3.0,95,0.06,,,0.73,97,Wunderground v.1.15,2013-06-05 22:12:00,
2013-06-05 18:17:00,73.5,72.0,29.98,SSW,200,0.0,3.0,95,0.04,,,0.73,98,Wunderground v.1.15,2013-06-05 22:17:00,
2013-06-05 18:23:00,73.7,72.5,29.98,SSE,162,1.0,4.0,96,0.00,,,0.73,39,Wunderground v.1.15,2013-06-05 22:23:00,
2013-06-05 18:28:00,73.9,72.7,29.98,SE,144,1.0,6.0,96,0.00,,,0.73,49,Wunderground v.1.15,2013-06-05 22:28:00,
2013-06-05 18:33:00,74.0,72.8,29.98,South,172,0.0,2.0,96,0.00,,,0.73,51,Wunderground v.1.15,2013-06-05 22:33:00,
2013-06-05 18:38:00,74.1,72.9,29.98,SE,137,0.0,3.0,96,0.00,,,0.73,60,Wunderground v.1.15,2013-06-05 22:38:00,
2013-06-05 18:43:00,74.3,73.1,29.98,SE,124,2.0,2.0,96,0.00,,,0.73,67,Wunderground v.1.15,2013-06-05 22:43:00,
2013-06-05 18:48:00,74.4,73.2,29.97,SSE,164,0.0,3.0,96,0.00,,,0.73,54,Wunderground v.1.15,2013-06-05 22:48:00,
2013-06-05 18:53:00,74.5,73.3,29.97,SE,134,3.0,4.0,96,0.00,,,0.73,33,Wunderground v.1.15,2013-06-05 22:53:00,
2013-06-05 18:58:00,74.4,73.2,29.97,SSE,150,0.0,4.0,96,0.00,,,0.73,26,Wunderground v.1.15,2013-06-05 22:58:00,
2013-06-05 19:03:00,74.3,73.1,29.97,South,188,2.0,2.0,96,0.00,,,0.73,18,Wunderground v.1.15,2013-06-05 23:03:00,
2013-06-05 19:08:00,74.1,72.9,29.97,SE,141,0.0,2.0,96,0.00,,,0.73,11,Wunderground v.1.15,2013-06-05 23:08:00,
2013-06-05 19:13:00,74.1,72.9,29.96,SE,140,0.0,1.0,96,0.00,,,0.73,9,Wunderground v.1.15,2013-06-05 23:13:00,
2013-06-05 19:18:00,74.0,72.8,29.96,SSE,161,1.0,1.0,96,0.00,,,0.73,7,Wunderground v.1.15,2013-06-05 23:18:00,
2013-06-05 19:23:00,74.2,73.0,29.97,SSW,192,0.0,3.0,96,0.00,,,0.73,5,Wunderground v.1.15,2013-06-05 23:23:00,
2013-06-05 19:28:00,74.4,73.5,29.97,South,173,0.0,3.0,97,0.00,,,0.74,0,Wunderground v.1.15,2013-06-05 23:28:00,
2013-06-05 19:33:00,74.4,73.5,29.98,South,173,0.0,0.0,97,0.00,,,0.74,0,Wunderground v.1.15,2013-06-05 23:33:00,
2013-06-05 19:38:00,74.8,73.9,29.97,ENE,69,0.0,1.0,97,0.00,,,0.74,0,Wunderground v.1.15,2013-06-05 23:38:00,
2013-06-05 19:43:00,75.1,74.2,29.98,East,90,0.0,1.0,97,0.00,,,0.74,0,Wunderground v.1.15,2013-06-05 23:43:00,
2013-06-05 19:48:00,75.2,74.3,29.98,East,90,0.0,1.0,97,0.00,,,0.74,0,Wunderground v.1.15,2013-06-05 23:48:00,
2013-06-05 19:54:00,75.3,74.4,29.98,South,179,3.0,3.0,97,0.00,,,0.74,0,Wunderground v.1.15,2013-06-05 23:54:00,
2013-06-05 19:59:00,75.5,74.6,29.98,SE,137,1.0,3.0,97,0.00,,,0.74,0,Wunderground v.1.15,2013-06-05 23:59:00,
2013-06-05 20:04:00,75.5,74.6,29.98,NE,42,1.0,1.0,97,0.00,,,0.74,0,Wunderground v.1.15,2013-06-06 00:04:00,
2013-06-05 20:10:00,75.6,74.7,29.97,ESE,122,0.0,0.0,97,0.00,,,0.74,0,Wunderground v.1.15,2013-06-06 00:10:00,
2013-06-05 20:15:00,74.9,73.4,29.98,NW,319,8.0,12.0,95,0.00,,,0.75,0,Wunderground v.1.15,2013-06-06 00:15:00,
2013-06-05 20:20:00,73.7,71.5,29.98,NW,315,5.0,5.0,93,0.00,,,0.75,0,Wunderground v.1.15,2013-06-06 00:20:00,
2013-06-05 20:25:00,73.0,70.9,29.98,NNW,343,5.0,10.0,93,0.05,,,0.76,0,Wunderground v.1.15,2013-06-06 00:25:00,
2013-06-05 20:30:00,72.7,70.9,29.98,WNW,296,4.0,4.0,94,0.05,,,0.76,0,Wunderground v.1.15,2013-06-06 00:30:00,
2013-06-05 20:35:00,72.6,70.8,29.98,WNW,296,0.0,4.0,94,0.05,,,0.76,0,Wunderground v.1.15,2013-06-06 00:35:00,
2013-06-05 20:40:00,72.6,70.8,29.98,NW,317,0.0,2.0,94,0.04,,,0.76,0,Wunderground v.1.15,2013-06-06 00:40:00,
2013-06-05 20:45:00,72.6,70.8,29.98,WNW,291,0.0,3.0,94,0.00,,,0.76,0,Wunderground v.1.15,2013-06-06 00:45:00,
2013-06-05 20:50:00,72.6,71.1,29.99,South,171,0.0,0.0,95,0.00,,,0.76,0,Wunderground v.1.15,2013-06-06 00:50:00,
2013-06-05 20:55:00,72.7,71.2,29.99,South,171,0.0,0.0,95,0.00,,,0.76,0,Wunderground v.1.15,2013-06-06 00:55:00,
2013-06-05 21:00:00,72.7,71.2,29.99,South,171,0.0,0.0,95,0.00,,,0.76,0,Wunderground v.1.15,2013-06-06 01:00:00,
2013-06-05 21:05:00,72.8,71.3,29.98,South,171,0.0,1.0,95,0.00,,,0.76,0,Wunderground v.1.15,2013-06-06 01:05:00,
2013-06-05 21:10:00,72.8,71.3,29.99,WSW,255,0.0,0.0,95,0.00,,,0.77,0,Wunderground v.1.15,2013-06-06 01:10:00,
2013-06-05 21:15:00,73.0,71.8,29.99,SW,214,0.0,3.0,96,0.00,,,0.77,0,Wunderground v.1.15,2013-06-06 01:15:00,
2013-06-05 21:20:00,73.1,71.9,29.99,ESE,117,2.0,3.0,96,0.00,,,0.77,0,Wunderground v.1.15,2013-06-06 01:20:00,
2013-06-05 21:26:00,73.1,71.6,29.99,SE,124,2.0,6.0,95,0.00,,,0.77,0,Wunderground v.1.15,2013-06-06 01:26:00,
2013-06-05 21:31:00,73.0,71.5,29.99,SE,134,0.0,1.0,95,0.00,,,0.77,0,Wunderground v.1.15,2013-06-06 01:31:00,
2013-06-05 21:36:00,73.0,71.5,29.99,West,259,0.0,2.0,95,0.00,,,0.77,0,Wunderground v.1.15,2013-06-06 01:36:00,
2013-06-05 21:41:00,72.9,71.7,29.99,ESE,119,0.0,0.0,96,0.00,,,0.77,0,Wunderground v.1.15,2013-06-06 01:41:00,
2013-06-05 21:46:00,73.0,71.8,29.99,SSW,201,0.0,5.0,96,0.00,,,0.77,0,Wunderground v.1.15,2013-06-06 01:46:00,
2013-06-05 21:51:00,73.1,71.9,29.99,ESE,118,2.0,3.0,96,0.00,,,0.77,0,Wunderground v.1.15,2013-06-06 01:51:00,
2013-06-05 21:56:00,73.5,72.3,30.00,NW,306,2.0,5.0,96,0.00,,,0.77,0,Wunderground v.1.15,2013-06-06 01:56:00,
2013-06-05 22:02:00,73.7,72.5,30.00,NW,309,5.0,5.0,96,0.00,,,0.78,0,Wunderground v.1.15,2013-06-06 02:02:00,
2013-06-05 22:07:00,73.6,72.1,30.00,West,276,2.0,7.0,95,0.33,,,0.80,0,Wunderground v.1.15,2013-06-06 02:07:00,
2013-06-05 22:12:00,73.5,72.0,29.99,NNW,344,0.0,4.0,95,0.09,,,0.80,0,Wunderground v.1.15,2013-06-06 02:12:00,
2013-06-05 22:18:00,73.5,72.3,30.00,West,277,2.0,5.0,96,0.15,,,0.82,0,Wunderground v.1.15,2013-06-06 02:18:00,
2013-06-05 22:23:00,73.3,72.1,29.99,SSW,209,0.0,1.0,96,0.10,,,0.82,0,Wunderground v.1.15,2013-06-06 02:23:00,
2013-06-05 22:28:00,73.4,72.2,29.99,South,186,0.0,1.0,96,0.06,,,0.82,0,Wunderground v.1.15,2013-06-06 02:28:00,
2013-06-05 22:33:00,73.4,72.2,29.99,South,186,0.0,1.0,96,0.04,,,0.82,0,Wunderground v.1.15,2013-06-06 02:33:00,
2013-06-05 22:38:00,73.6,72.7,29.99,South,186,0.0,1.0,97,0.00,,,0.82,0,Wunderground v.1.15,2013-06-06 02:38:00,
2013-06-05 22:43:00,73.6,72.7,29.99,South,169,0.0,1.0,97,0.00,,,0.82,0,Wunderground v.1.15,2013-06-06 02:43:00,
2013-06-05 22:48:00,73.7,72.8,29.99,SSE,160,1.0,3.0,97,0.00,,,0.82,0,Wunderground v.1.15,2013-06-06 02:48:00,
2013-06-05 22:53:00,73.7,72.8,29.99,SSE,155,2.0,2.0,97,0.00,,,0.83,0,Wunderground v.1.15,2013-06-06 02:53:00,
2013-06-05 22:58:00,73.7,72.8,29.99,SE,146,0.0,4.0,97,0.00,,,0.83,0,Wunderground v.1.15,2013-06-06 02:58:00,
2013-06-05 23:03:00,73.7,72.8,29.99,East,96,0.0,1.0,97,0.00,,,0.83,0,Wunderground v.1.15,2013-06-06 03:03:00,
2013-06-05 23:08:00,73.7,72.8,29.99,ESE,117,0.0,2.0,97,0.00,,,0.83,0,Wunderground v.1.15,2013-06-06 03:08:00,
2013-06-05 23:13:00,73.6,72.7,29.98,ESE,116,0.0,2.0,97,0.00,,,0.83,0,Wunderground v.1.15,2013-06-06 03:13:00,
2013-06-05 23:18:00,73.7,72.8,29.98,NNW,335,2.0,2.0,97,0.00,,,0.83,0,Wunderground v.1.15,2013-06-06 03:18:00,
2013-06-05 23:23:00,73.7,72.8,29.99,SSE,152,0.0,2.0,97,0.00,,,0.83,0,Wunderground v.1.15,2013-06-06 03:23:00,
2013-06-05 23:28:00,73.7,72.8,29.99,West,281,0.0,2.0,97,0.00,,,0.84,0,Wunderground v.1.15,2013-06-06 03:28:00,
2013-06-05 23:33:00,73.7,72.8,29.99,West,281,0.0,0.0,97,0.00,,,0.84,0,Wunderground v.1.15,2013-06-06 03:33:00,
2013-06-05 23:38:00,73.7,72.8,30.00,West,281,0.0,0.0,97,0.24,,,0.86,0,Wunderground v.1.15,2013-06-06 03:38:00,
2013-06-05 23:43:00,73.7,72.8,30.00,West,281,0.0,1.0,97,0.09,,,0.86,0,Wunderground v.1.15,2013-06-06 03:43:00,
2013-06-05 23:49:00,73.7,72.8,29.99,West,281,0.0,1.0,97,0.18,,,0.88,0,Wunderground v.1.15,2013-06-06 03:49:00,
2013-06-05 23:54:00,73.7,72.8,29.99,SSW,205,1.0,1.0,97,0.11,,,0.88,0,Wunderground v.1.15,2013-06-06 03:54:00,
2013-06-05 23:59:00,73.7,72.8,29.99,SSW,206,0.0,1.0,97,0.06,,,0.89,0,Wunderground v.1.15,2013-06-06 03:59:00,